weather.gov     
National Weather Service

Regional Weather Roundup
NWS Homepage
This page is being discontinued on March 12, 2014.
The same data is available at this site. Please update your bookmarks.
Thank you, and we apologize for the inconvenience.
Please send an email to SR-SRH.Webmaster@noaa.gov with any concerns.


Current Version
Previous Version:    01  02  03  04  05  06  07  08  09  10  11  12  13  14  15  16  17  18  19  20  21  22  23  24  25  26  27  28  29  30  
   31  32  33  34  35  36  37  38  39  40  41  42  43  44  45  46  47  48  49  50  51  52  53  
[Printable]
693
ASCA42 TJSJ 221211
RWRPR
PUERTO RICO/U.S. VIRGIN ISLANDS HOURLY WEATHER ROUNDUP
NATIONAL WEATHER SERVICE SAN JUAN PR
800 AM AST WED OCT 22 2014

PRZ001-004-221300-
PUERTO RICO

CITY           SKY/WX    TMP DP  RH WIND       PRES   REMARKS
SAN JUAN LMM   MOSUNNY   82  73  74 SE5       29.98R
AGUADILLA      SUNNY     81  70  69 SE5       29.98S
CEIBA          PTSUNNY   82  73  74 MISG      30.01R
$$

PRZ006-007-221300-
U.S. VIRGIN ISLANDS

CITY           SKY/WX    TMP DP  RH WIND       PRES   REMARKS
CHRISTIANSTED  MOSUNNY   82  73  74 E8        29.99R
$$

HOURLY WEATHER ROUNDUP FOR THE NEWS MEDIA

CITY           SKY/WX    TMP DP  RH WIND       PRES   REMARKS
MIAMI          CLOUDY    76  71  85 CALM      29.95R
ORLANDO        CLEAR     70  66  87 N3        29.97R
NEW YORK       TSTM      55  52  88 N17       29.91R
NEWARK         TSTM      55  53  93 N17       29.92R
CHICAGO        PTCLDY    41  38  89 NW5       30.32R
HARTFORD       CLOUDY    54  53  97 N7        29.93R
BOSTON         CLOUDY    56  54  93 NE22G33   29.99R
DALLAS         CLEAR     64  60  87 E6        30.10R
PHILADELPHIA   LGT RAIN  57  52  83 NE17G28   29.87R




U.S. Dept. of Commerce
NOAA National Weather Service
1325 East West Highway
Silver Spring, MD 20910
E-mail: w-nws.webmaster@noaa.gov
Page last modified: May 16, 2007
NATIONAL WEATHER SERVICE: for Safety, for Work, for Fun - FOR LIFE